Location: Kalberh�ni
(46.4610°N, 7.2453°E)
Time: 15:18:54
(UTC+00:00)

N. Korean satellite - Visible Passes

Search period start: 01 October 2022 00:00
Search period end: 11 October 2022 00:00
Orbit: 426 x 468 km, 97.3° (Epoch: 30 September)

Date Brightness Start Highest point End Pass type
(mag) Time Alt. Az. Time Alt. Az. Time Alt. Az.
01 Oct 6.4 04:51:35 10° NNE 04:54:52 82° ESE 04:58:07 10° S visible
02 Oct 8.8 04:16:08 10° NE 04:18:57 26° E 04:21:45 10° SSE visible
04 Oct 7.4 04:36:45 10° NNE 04:39:56 49° E 04:43:07 10° S visible
05 Oct 9.5 04:01:32 10° NE 04:03:48 17° E 04:06:05 10° SE visible
06 Oct 6.3 04:57:23 10° N 05:00:40 83° WNW 05:03:55 10° SSW visible
07 Oct 8.4 04:21:35 10° NNE 04:24:32 30° E 04:27:29 10° SSE visible
08 Oct 9.9 03:47:03 10° ENE 03:48:12 11° E 03:49:20 10° ESE visible
09 Oct 7.0 04:41:46 10° NNE 04:45:00 58° E 04:48:15 10° S visible
10 Oct 9.3 04:06:10 10° NE 04:08:40 20° E 04:11:09 10° SE visible
